Date String (YYYY-MM-DD hh:mm:ss) UTC,Instrument flags,Ambient pressure (hPa),Sample flow (lpm),Bypass flow (lpm),Sample temperature (°C),Ambient temperature (°C),ASC tube jacket temperature (°C),LED temperature (°C),Box temperature (°C),Sample RH (%),Span deviation,Mass concentration (μg/m³),Mass concentration (μg/m³),Mass concentration (μg/m³)
DateTimeUTC,F1_M11,P_M11,Q1_M11,Q2_M11,T1_M11,T2_M11,T3_M11,T4_M11,T5_M11,U1_M11,ZSPAN_M11,X0_M11,X2_M11,X1_M11
2022-01-01 22:00:00,,0821.2,5.01,0.00,22.7,22.2,00.0,31.6,24.5,06.8,0000.0,0002.27,0000.15,0000.01
2022-01-01 22:01:00,,0821.1,4.98,0.00,22.7,22.1,00.0,31.6,24.5,06.8,0000.0,0002.12,0000.12,0000.01
2022-01-01 22:02:00,,0821.1,5.01,0.00,22.7,22.1,00.0,31.6,24.5,06.9,0000.0,0002.13,0000.12,0000.00
2022-01-01 22:03:00,,0821.1,5.00,0.00,22.7,22.1,00.0,31.6,24.5,06.9,0000.0,0002.10,0000.11,0000.00
2022-01-01 22:04:00,,0821.1,5.00,0.00,22.7,22.1,00.0,31.6,24.5,06.9,0000.0,0002.10,0000.11,0000.00
2022-01-01 22:05:00,,0821.1,5.01,0.00,22.7,22.1,00.0,31.6,24.5,06.8,0000.0,0002.05,0000.09,0000.00
2022-01-01 22:06:00,,0821.1,4.98,0.00,22.7,22.2,00.0,31.6,24.5,06.7,0000.0,0001.96,0000.09,0000.00
2022-01-01 22:07:00,,0821.1,5.02,0.00,22.8,22.2,00.0,31.6,24.5,06.7,0000.0,0001.99,0000.11,0000.01
2022-01-01 22:08:00,,0821.2,4.99,0.00,22.8,22.2,00.0,31.7,24.5,06.7,0000.0,0000.90,0000.12,0000.01
2022-01-01 22:09:00,,0821.2,5.00,0.00,22.8,22.2,00.0,31.7,24.5,06.8,0000.0,0000.86,0000.12,0000.01
2022-01-01 22:10:00,,0821.2,5.00,0.00,22.8,22.2,00.0,31.7,24.5,06.8,0000.0,0000.87,0000.13,0000.01
2022-01-01 22:11:00,,0821.1,4.99,0.00,22.8,22.2,00.0,31.7,24.5,06.7,0000.0,0000.83,0000.12,0000.01
2022-01-01 22:12:00,,0821.2,5.02,0.00,22.8,22.2,00.0,31.7,24.5,06.7,0000.0,0000.80,0000.11,0000.01
2022-01-01 22:13:00,,0821.3,4.99,0.00,22.8,22.1,00.0,31.7,24.5,06.7,0000.0,0000.79,0000.10,0000.02
2022-01-01 22:14:00,,0821.3,5.00,0.00,22.7,22.1,00.0,31.7,24.4,06.6,0000.0,0000.82,0000.11,0000.02
2022-01-01 22:15:00,,0821.3,5.02,0.00,22.7,22.1,00.0,31.7,24.4,06.6,0000.0,0000.82,0000.11,0000.02
2022-01-01 22:16:00,,0821.3,4.98,0.00,22.7,22.1,00.0,31.7,24.4,06.6,0000.0,0000.89,0000.12,0000.02
2022-01-01 22:17:00,,0821.3,5.01,0.00,22.7,22.0,00.0,31.7,24.4,06.6,0000.0,0000.89,0000.11,0000.02
2022-01-01 22:18:00,,0821.3,5.00,0.00,22.7,22.0,00.0,31.7,24.4,06.8,0000.0,0000.66,0000.08,0000.01
2022-01-01 22:19:00,,0821.3,4.99,0.00,22.7,22.0,00.0,31.7,24.4,06.8,0000.0,0000.43,0000.06,0000.01
2022-01-01 22:20:00,,0821.3,5.01,0.00,22.7,22.0,00.0,31.7,24.3,06.8,0000.0,0000.45,0000.07,0000.01
2022-01-01 22:21:00,,0821.4,4.99,0.00,22.7,22.0,00.0,31.7,24.4,06.5,0000.0,0000.44,0000.06,0000.01
2022-01-01 22:22:00,,0821.4,5.00,0.00,22.7,22.0,00.0,31.7,24.4,06.4,0000.0,0000.44,0000.06,0000.01
2022-01-01 22:23:00,,0821.4,5.01,0.00,22.7,22.1,00.0,31.7,24.4,06.2,0000.0,0000.44,0000.06,0000.01
2022-01-01 22:24:00,,0821.4,4.99,0.00,22.7,22.1,00.0,31.7,24.4,05.9,0000.0,0000.53,0000.07,0000.01
2022-01-01 22:25:00,,0821.4,5.00,0.00,22.7,22.1,00.0,31.7,24.5,06.0,0000.0,0000.52,0000.07,0000.01
2022-01-01 22:26:00,,0821.4,5.01,0.00,22.7,22.1,00.0,31.7,24.5,06.1,0000.0,0000.51,0000.07,0000.01
2022-01-01 22:27:00,,0821.4,5.00,0.00,22.7,22.1,00.0,31.7,24.5,06.0,0000.0,0000.71,0000.06,0000.01
2022-01-01 22:28:00,,0821.4,4.99,0.00,22.7,22.1,00.0,31.7,24.5,06.1,0000.0,0001.20,0000.05,0000.01
2022-01-01 22:29:00,,0821.4,4.99,0.00,22.7,22.1,00.0,31.7,24.4,06.3,0000.0,0001.41,0000.05,0000.01
2022-01-01 22:30:00,,0821.4,5.01,0.00,22.7,22.1,00.0,31.7,24.4,06.4,0000.0,0001.44,0000.06,0000.01
2022-01-01 22:31:00,,0821.4,5.00,0.00,22.7,22.1,00.0,31.7,24.4,06.4,0000.0,0001.59,0000.05,0000.01
2022-01-01 22:32:00,,0821.4,4.99,0.00,22.7,22.1,00.0,31.7,24.4,06.4,0000.0,0001.64,0000.06,0000.01
2022-01-01 22:33:00,,0821.4,5.00,0.00,22.7,22.1,00.0,31.7,24.5,06.5,0000.0,0001.85,0000.09,0000.01
2022-01-01 22:34:00,,0821.4,5.01,0.00,22.8,22.4,00.0,31.7,24.6,06.4,0000.0,0001.87,0000.10,0000.02
2022-01-01 22:35:00,,0821.5,4.99,0.00,22.9,23.0,00.0,31.7,24.8,06.2,0000.0,0001.79,0000.09,0000.02
2022-01-01 22:36:00,,0821.6,5.00,0.00,23.0,23.5,00.0,31.8,25.0,06.3,0000.0,0001.77,0000.08,0000.02
2022-01-01 22:37:00,,0821.5,5.00,0.00,23.1,23.4,00.0,31.8,25.0,06.2,0000.0,0001.78,0000.09,0000.02
2022-01-01 22:38:00,,0821.6,5.01,0.00,23.1,23.2,00.0,31.9,25.0,06.1,0000.0,0001.59,0000.10,0000.02
2022-01-01 22:39:00,,0821.6,4.99,0.00,23.1,23.1,00.0,31.9,25.0,06.0,0000.0,0001.18,0000.10,0000.02
2022-01-01 22:40:00,,0821.6,5.01,0.00,23.1,23.0,00.0,31.9,25.0,05.6,0000.0,0000.82,0000.10,0000.02
2022-01-01 22:41:00,,0821.6,5.01,0.00,23.1,22.9,00.0,31.9,25.0,05.5,0000.0,0000.75,0000.08,0000.02
2022-01-01 22:42:00,,0821.6,5.00,0.00,23.1,22.8,00.0,31.9,25.0,05.3,0000.0,0000.59,0000.09,0000.02
2022-01-01 22:43:00,,0821.6,4.99,0.00,23.1,22.8,00.0,31.9,24.9,05.3,0000.0,0000.58,0000.09,0000.02
2022-01-01 22:44:00,,0821.6,5.01,0.00,23.1,22.7,00.0,32.0,24.9,05.3,0000.0,0000.38,0000.07,0000.02
2022-01-01 22:45:00,,0821.6,4.99,0.00,23.1,22.7,00.0,32.0,24.9,05.2,0000.0,0000.40,0000.08,0000.01
2022-01-01 22:46:00,,0821.7,5.00,0.00,23.1,22.6,00.0,32.0,24.9,05.1,0000.0,0000.42,0000.09,0000.02
2022-01-01 22:47:00,,0821.7,5.00,0.00,23.1,22.6,00.0,32.0,24.9,05.3,0000.0,0000.48,0000.10,0000.02
2022-01-01 22:48:00,,0821.8,5.01,0.00,23.1,22.6,00.0,32.0,24.9,05.3,0000.0,0000.47,0000.10,0000.02
2022-01-01 22:49:00,,0821.8,5.00,0.00,23.1,22.6,00.0,32.0,24.9,05.1,0000.0,0000.80,0000.10,0000.02
2022-01-01 22:50:00,,0821.7,4.99,0.00,23.1,22.5,00.0,32.0,24.9,05.1,0000.0,0000.80,0000.10,0000.02
2022-01-01 22:51:00,,0821.7,5.00,0.00,23.1,22.5,00.0,32.0,24.9,05.1,0000.0,0000.85,0000.10,0000.02
2022-01-01 22:52:00,,0821.6,5.00,0.00,23.1,22.5,00.0,32.0,24.9,05.0,0000.0,0000.93,0000.11,0000.02
2022-01-01 22:53:00,,0821.6,5.01,0.00,23.1,22.5,00.0,32.0,24.9,05.3,0000.0,0000.97,0000.09,0000.02
2022-01-01 22:54:00,,0821.6,4.99,0.00,23.1,22.4,00.0,32.0,24.8,05.6,0000.0,0000.94,0000.08,0000.02
2022-01-01 22:55:00,,0821.6,5.00,0.00,23.1,22.4,00.0,32.0,24.8,05.6,0000.0,0000.92,0000.08,0000.01
2022-01-01 22:56:00,,0821.5,5.01,0.00,23.0,22.4,00.0,32.0,24.7,05.6,0000.0,0000.92,0000.07,0000.01
2022-01-01 22:57:00,,0821.6,4.99,0.00,23.0,22.3,00.0,32.0,24.7,05.6,0000.0,0000.92,0000.06,0000.01
2022-01-01 22:58:00,,0821.6,5.01,0.00,23.0,22.3,00.0,32.0,24.7,05.5,0000.0,0000.88,0000.05,0000.01
2022-01-01 22:59:00,,0821.7,4.99,0.00,23.0,22.3,00.0,32.0,24.6,05.4,0000.0,0001.31,0000.06,0000.01
